www.pogodaiklimat.ru
ПОГОДА в Санта-Инесе
Время
и дата
19:35 29.11
19:55 29.11
20:15 29.11
20:35 29.11
20:55 29.11
21:15 29.11
21:35 29.11
21:55 29.11
22:15 29.11
22:35 29.11
22:55 29.11
23:15 29.11
23:35 29.11
23:55 29.11
00:15 30.11
00:35 30.11
00:55 30.11
01:15 30.11
01:35 30.11
01:55 30.11
02:15 30.11
02:35 30.11
02:55 30.11
03:15 30.11
03:35 30.11
03:55 30.11
04:15 30.11
04:35 30.11
04:55 30.11
05:15 30.11
05:35 30.11
05:55 30.11
06:15 30.11
06:35 30.11
06:55 30.11
07:15 30.11
07:35 30.11
07:55 30.11
08:15 30.11
08:35 30.11
08:55 30.11
09:15 30.11
09:35 30.11
09:55 30.11
10:15 30.11
10:35 30.11
10:55 30.11
11:15 30.11
Ветер
(напр.,м/с)
Видим. Явления Облачность Т
(С)
Тd
(С)
f
(%)
Тe
(С)
Тes
(С)
Комфортность P
(гПа)
Po
(гПа)
Тmin
(С)
Tmax
(С)
R
(мм)
R24
(мм)
S
(см)
ЮЗ 2 16 км 10/10 990 м +8.0 +6.0 87 +6 +6 991.7
штиль 0 16 км 8/8 1050 м +8.0 +6.0 87 +7 +7 991.7
штиль 0 16 км 8/8 1050 м +8.0 +6.0 87 +7 +7 992.0
штиль 0 16 км 8/8 1020 м +7.0 +5.0 87 +6 +6 992.0
СВ 2 16 км 8/8 1050 м +6.0 +4.0 87 +4 +4 992.0
В 2 16 км 8/8 1110 м +7.0 +5.0 87 +5 +5 992.0
штиль 0 16 км 8/8 1050 м +6.0 +5.0 93 +5 +5 992.3
штиль 0 16 км 10/10 1050 м +5.0 +4.0 93 +4 +4 992.3
СВ 2 16 км 10/10 1050 м +5.0 +4.0 93 +2 +2 992.3
штиль 0 16 км 10/10 1020 м +5.0 +4.0 93 +4 +4 992.3
СВ 2 16 км 10/10 990 м +5.0 +4.0 93 +2 +2 992.3
СВ 3 16 км 10/10 960 м +4.0 +3.0 93 0 0 992.3
СВ 2 16 км 8/8 1020 м +4.0 +3.0 93 +1 +1 992.3
штиль 0 16 км 8/8 1050 м +4.0 +3.0 93 +3 +3 992.0
штиль 0 16 км 5/5 990 м +4.0 +3.0 93 +3 +3 992.0
штиль 0 16 км 8/8 960 м +4.0 +3.0 93 +3 +3 991.7
штиль 0 16 км 10/10 990 м +4.0 +3.0 93 +3 +3 991.7
штиль 0 16 км 8/8 930 м +3.0 +3.0 100 +2 +2 991.7
штиль 0 16 км 5/5 1410 м +4.0 +3.0 93 +3 +3 991.3
штиль 0 16 км 5/5 1320 м +3.0 +3.0 100 +2 +2 991.3
штиль 0 16 км 2/2 1260 м +3.0 +3.0 100 +2 +2 991.3
штиль 0 16 км 2/2 1470 м +3.0 +3.0 100 +2 +2 991.3
СВ 2 16 км 5/5 1470 м +3.0 +2.0 93 0 0 991.0
штиль 0 16 км 8/8 1440 м +3.0 +3.0 100 +2 +2 991.3
штиль 0 16 км 8/8 810 м +2.0 +2.0 100 +1 +1 991.0
штиль 0 16 км 8/8 870 м +3.0 +3.0 100 +2 +2 991.0
штиль 0 16 км 5/5 1140 м +3.0 +3.0 100 +2 +2 991.0
СВ 2 14 км 5/5 1140 м +2.0 +2.0 100 -2 -2 991.0
штиль 0 13 км 5/5 660 м +2.0 +2.0 100 +1 +1 991.0
штиль 0 13 км 8/8 660 м +2.0 +2.0 100 +1 +1 991.3
штиль 0 11 км 8/8 690 м +1.0 +2.0 100 0 0 991.3
С 2 13 км 8/8 690 м +2.0 +2.0 100 -2 -2 991.7
штиль 0 13 км 8/8 720 м +1.0 +1.0 100 0 0 992.0
штиль 0 8 км дымка 8/8 840 м +2.0 +2.0 100 +1 +1 992.0
штиль 0 5 км дымка 2/2 870 м +3.0 +3.0 100 +2 +2 992.0
В 2 11 км ясно +2.0 +2.0 100 -2 -2 992.0
штиль 0 13 км ясно +2.0 +2.0 100 +1 +1 992.0
С 2 10 км дымка ясно +3.0 +3.0 100 0 0 992.3
штиль 0 10 км дымка ясно +4.0 +4.0 100 +3 +4 992.3
штиль 0 14 км 5/5 1080 м +5.0 +4.0 93 +4 +4 992.7
штиль 0 16 км 10/10 1080 м +6.0 +5.0 93 +5 +5 992.7
штиль 0 16 км 8/8 1110 м +6.0 +5.0 93 +5 +6 992.7
штиль 0 16 км 8/8 1170 м +7.0 +5.0 87 +6 +7 992.3
штиль 0 16 км 8/8 1230 м +8.0 +6.0 87 +7 +8 992.3
штиль 0 14 км 8/8 1140 м +9.0 +6.0 81 +8 +9 992.3
штиль 0 16 км 8/8 1200 м +9.0 +6.0 81 +8 +9 992.0
ЮЗ 2 16 км 8/8 1140 м +10.0 +6.0 76 +9 +9 992.0
З 2 16 км 8/8 1110 м +11.0 +7.0 76 +10 +11 991.7
Местоположение метеостанции Santa Ynez Airport: широта 34.6069 долгота -120.0756 высота над уровнем моря 205 м.
В архиве по умолчанию представлена погода в Санта-Инесе за последние 1-2 суток. Обновление информации о фактической погоде в базе происходит ежечасно! Архивные данные за месяц целиком и за предыдущие месяцы Вы можете получить, выбрав интересующий диапазон дат из раскрывающегося списка и нажав кнопку "Ввод!".
Внимание! Архив погоды МЕТАР в базе сайта по станциям, не включенным в климатический монитор, хранится не более 60 дней. Нет смысла пытаться выбрать более раннюю дату.
*Определитесь, кто Вы:
Внимание! Время в таблицах - местное (без учета летнего времени). Для получения всемирного времени необходимо вычесть поправку, которая равна -8 ч.
Смотрите также архив погоды в соседних городах и на ближайших метеорологических станциях:
Партнеры нашего сайта:      
Пояснения к столбцам:
  • Ветер - указаны скорость ветра в м/с - средняя за 10 мин, порывы в срок и между сроками (в фигурных скобках) и направление, откуда дует ветер: С - северный,
  • СВ - северо-восточный, В - восточный, ЮВ - юго-восточный, Ю - южный, ЮЗ - юго-западный, З - западный, СЗ - северо-западный.
  • Видимость - горизонтальная дальность видимости в метрах или километрах. При видимости от 1 до 10 км при отсутствии осадков обычно наблюдается дымка, при ухудшении видимости до 1 км и менее - туман. В сухую погоду видимость может ухудшаться дымом, пылью или мглою.
  • Явления - указаны атмосферные явления, наблюдавшиеся в срок или в последний час перед сроком; фигурными скобками обозначены явления, наблюдавшиеся между сроками (за 1-3 часа до срока); квадратными скобками обозначены град или гололедные отложения с указанием их диаметра в мм.
  • Облачность - указаны через наклонную черту общая и нижняя облачность в баллах и высота нижней границы облаков в метрах; квадратными скобками обозначены формы облаков: Ci - перистые, Cs - перисто-слоистые, Cc - перисто-кучевые, Ac - высококучевые, As - высокослоистые, Sc - слоисто-кучевые, Ns - слоисто-дождевые, Cu - кучевые, Cb - кучево-дождевые. Подробнее классификацию облаков см. в Атласе облаков (PDF).
  • T - Температура воздуха - температура, измеренная на высоте 2 м над землей.
  • Td - Температура точки росы - температура, при понижении до которой содержащийся в воздухе водяной пар достигнет насыщения.
  • f - Относительная влажность воздуха - влажноcть воздуха, измеренная на высоте 2 м над землей.
  • Te - Эффективная температура - температура, которую ощущает одетый по сезону человек в тени. Характеристика душности погоды. При расчете учитывается влияние влажности воздуха и скорости ветра на теплоощущения человека.
  • Tes - Эффективная температура на солнце - температура, которую ощущает человек, с поправкой на солнечный нагрев. Характеристика знойности погоды. Зависит от высоты солнца над горизонтом, облачности и скорости ветра. Ночью, в пасмурную погоду, а также при ветре 12 м/с и более поправка равна нулю.
  • P - Атмосферное давление - приведенное к уровню моря атмосферное давление.
  • Po - Атмосферное давление - измеренное на уровне метеостанции атмосферное давление.
  • Tmin - Минимальная температура - минимум температуры воздуха на высоте 2 м над землей.
  • Tmax - Максимальная температура - максимум температуры воздуха на высоте 2 м над землей.
  • R - Количество осадков - Количество выпавших осадков за период времени, мм. При наведении курсора мыши на число - период времени, за который выпало указанное количество осадков.
  • R24 - Количество осадков - Количество выпавших осадков за 24 часа, мм.
  • S - Снежный покров - Высота снежного покрова, см. При наведении курсора мыши на число - состояние снежного покрова и степень покрытия местности в баллах.